Location: Unspecified
(0.0000°N, 0.0000°E)
Time: 23:55:04
(UTC+00:00)

Altair - Visible Passes

Search period start: 12 December 2018 00:00
Search period end: 22 December 2018 00:00
Orbit: 1502 x 1682 km, 47.2° (Epoch: 12 December)

Date Brightness Start Highest point End Pass type
(mag) Time Alt. Az. Time Alt. Az. Time Alt. Az.
12 Dec 9.2 18:30:59 10° SSE 18:35:41 14° SE 18:40:18 10° ESE visible
12 Dec 7.5 20:30:56 10° SSW 20:40:27 72° SSE 20:40:27 72° SSE visible
12 Dec 9.8 22:38:21 10° W 22:38:30 10° W 22:38:30 10° W visible
13 Dec 7.5 20:05:48 10° SSW 20:15:49 66° SE 20:16:58 62° E visible
13 Dec 9.4 22:12:37 10° WSW 22:15:01 17° W 22:15:01 17° W visible
14 Dec 7.7 19:40:42 10° SSW 19:50:37 60° SE 19:53:32 46° ENE visible
14 Dec 9.1 21:46:56 10° WSW 21:51:35 24° W 21:51:35 24° W visible
15 Dec 7.8 19:15:38 10° SSW 19:25:25 53° SE 19:30:08 32° ENE visible
15 Dec 8.7 21:21:21 10° WSW 21:28:11 32° WNW 21:28:11 32° WNW visible
16 Dec 8.0 18:50:35 10° SSW 19:00:13 48° SE 19:06:46 21° ENE visible
16 Dec 8.4 20:55:49 10° WSW 21:04:49 38° NW 21:04:49 38° NW visible
17 Dec 8.2 18:25:35 10° SSW 18:35:01 43° SE 18:43:26 13° ENE visible
17 Dec 8.2 20:30:20 10° WSW 20:39:40 43° NW 20:41:30 40° NNW visible
18 Dec 9.4 05:14:35 10° NNE 05:19:19 15° NE 05:24:05 10° ENE visible
18 Dec 8.1 20:04:54 10° WSW 20:14:29 49° NW 20:18:11 35° N visible
19 Dec 9.4 04:50:28 10° NNE 04:54:05 13° NE 04:57:42 10° ENE visible
19 Dec 8.0 19:39:30 10° SW 19:49:17 54° NW 19:54:53 27° NNE visible
20 Dec 9.6 04:27:03 10° NNE 04:28:49 11° NE 04:30:33 10° NE visible
20 Dec 8.0 19:14:09 10° SW 19:24:06 61° NW 19:31:36 19° NNE visible
21 Dec 7.9 18:48:50 10° SW 18:58:54 68° NW 19:08:18 12° NNE visible
21 Dec 9.5 21:00:52 10° WNW 21:04:07 12° NW 21:06:22 11° NNW visible
